GW0092 Weather Reports


time (UTC)temp
C
wind
direction
speed
KPH
gust
KPH
rain 1hr
cm
rain 24hr
cm
rain mn
cm
humidity
%
barometer
mb
20260503214549 15 301 12.9 22.5 0.00 0.00 0.00 37 1014.9
20260503213057 15 331 8.0 25.7 0.00 0.00 0.00 37 1014.8
20260503211554 15 4 11.3 25.7 0.00 0.00 0.00 37 1014.6
20260503204556 15 340 9.7 32.2 0.00 0.00 0.00 38 1014.7
20260503203056 15 310 8.0 22.5 0.00 0.00 0.00 37 1014.6
20260503201554 15 281 12.9 27.4 0.00 0.00 0.00 36 1014.5
20260503200057 15 308 9.7 25.7 0.00 0.00 0.00 37 1014.7
20260503194553 15 348 14.5 24.1 0.00 0.00 0.00 36 1014.7
20260503193054 15 321 12.9 25.7 0.00 0.00 0.00 36 1014.9
20260503191551 15 327 12.9 25.7 0.00 0.00 0.00 37 1014.8
20260503190055 15 335 12.9 24.1 0.00 0.00 0.00 37 1014.8
20260503184610 14 269 12.9 29.0 0.00 0.00 0.00 38 1014.9
20260503183106 14 346 17.7 30.6 0.00 0.00 0.00 37 1015.3
20260503181607 14 323 11.3 27.4 0.00 0.00 0.00 39 1015.5
20260503180056 13 333 16.1 37.0 0.00 0.00 0.00 38 1015.5
20260503174556 13 347 12.9 27.4 0.00 0.00 0.00 39 1015.5
20260503173058 13 297 11.3 27.4 0.00 0.00 0.00 41 1015.4
20260503171552 13 352 14.5 27.4 0.00 0.00 0.00 41 1015.4
20260503081622 7 355 6.4 12.9 0.00 0.00 0.00 70 1012.4
20260503080111 8 331 8.0 14.5 0.00 0.00 0.00 68 1012.2
20260503071554 7 323 4.8 11.3 0.00 0.00 0.00 69 1011.9
20260503054604 9 333 4.8 14.5 0.00 0.00 0.00 63 1011.6
20260503053055 9 330 3.2 6.4 0.00 0.00 0.00 63 1011.5
20260503051557 10 322 3.2 8.0 0.00 0.00 0.00 62 1011.5
20260503050054 10 299 4.8 12.9 0.00 0.00 0.00 60 1011.6
20260503044611 10 354 6.4 11.3 0.00 0.00 0.00 60 1011.3
20260503043116 10 8 4.8 9.7 0.00 0.00 0.00 59 1011.6
20260503041558 11 319 4.8 11.3 0.00 0.00 0.00 59 1011.7
20260503040100 11 15 6.4 16.1 0.00 0.00 0.00 59 1012.0
20260503034600 11 31 4.8 12.9 0.00 0.00 0.00 60 1011.4
20260503033131 11 319 6.4 12.9 0.00 0.00 0.00 61 1011.7
20260503031559 11 327 4.8 8.0 0.00 0.00 0.00 62 1011.5
20260503030104 11 339 3.2 8.0 0.00 0.00 0.00 65 1011.5
20260503024621 11 336 3.2 9.7 0.00 0.00 0.00 65 1011.8
20260503023050 11 321 1.6 8.0 0.00 0.00 0.00 66 1011.8
20260503021600 11 328 1.6 3.2 0.00 0.00 0.00 66 1011.7
20260503020052 11 8 0.0 1.6 0.00 0.00 0.00 67 1011.8
20260503014559 11 342 0.0 3.2 0.00 0.00 0.00 69 1011.6
20260503013056 11 13 0.0 1.6 0.00 0.00 0.00 69 1011.8
20260503011604 11 0 0.0 0.0 0.00 0.00 0.00 71 1011.4
20260503004551 11 0 0.0 1.6 0.00 0.00 0.00 68 1011.4
20260503003055 11 0 0.0 1.6 0.00 0.00 0.00 69 1011.0
20260503001603 11 0 0.0 1.6 0.00 0.00 0.00 69 1011.0
20260503000107 11 0 0.0 0.0 0.00 0.00 0.00 69 1011.1
20260502234617 12 0 0.0 0.0 0.00 0.00 0.00 67 1011.1
20260502233110 12 0 0.0 1.6 0.00 0.00 0.00 64 1010.9
20260502231612 13 342 1.6 6.4 0.00 0.00 0.00 62 1010.8
20260502230058 13 334 3.2 9.7 0.00 0.00 0.00 61 1010.8
20260502224600 13 316 3.2 9.7 0.00 0.00 0.00 60 1010.8
20260502223059 13 314 3.2 9.7 0.00 0.00 0.00 57 1011.1
20260502221603 13 316 4.8 12.9 0.00 0.00 0.00 55 1011.0
20260502220053 14 321 6.4 11.3 0.00 0.00 0.00 55 1011.0